﻿測定場所 (Monitoring sites),日付 (Measurement date),時間 (Measurement time),線量率 最大値 (max) μGy/h,線量率 最小値 (min) μGy/h,線量率 平均値 (average) μGy/h,
大田 (Ota),2022-11-27,23:01～24:00,0.0365,0.0312,0.0344,
大田 (Ota),2022-11-27,22:01～23:00,0.0367,0.0317,0.0343,
大田 (Ota),2022-11-27,21:01～22:00,0.0368,0.0322,0.0343,
大田 (Ota),2022-11-27,20:01～21:00,0.0365,0.0315,0.0343,
大田 (Ota),2022-11-27,19:01～20:00,0.0359,0.0319,0.0343,
大田 (Ota),2022-11-27,18:01～19:00,0.0364,0.0318,0.0343,
大田 (Ota),2022-11-27,17:01～18:00,0.0371,0.0315,0.0342,
大田 (Ota),2022-11-27,16:01～17:00,0.0368,0.0318,0.0341,
大田 (Ota),2022-11-27,15:01～16:00,0.0367,0.0317,0.0345,
大田 (Ota),2022-11-27,14:01～15:00,0.0374,0.0326,0.0345,
大田 (Ota),2022-11-27,13:01～14:00,0.0374,0.0310,0.0347,
大田 (Ota),2022-11-27,12:01～13:00,0.0367,0.0319,0.0344,
大田 (Ota),2022-11-27,11:01～12:00,0.0368,0.0325,0.0345,
大田 (Ota),2022-11-27,10:01～11:00,0.0380,0.0311,0.0344,
大田 (Ota),2022-11-27,09:01～10:00,0.0361,0.0316,0.0342,
大田 (Ota),2022-11-27,08:01～09:00,0.0361,0.0318,0.0338,
大田 (Ota),2022-11-27,07:01～08:00,0.0375,0.0319,0.0342,
大田 (Ota),2022-11-27,06:01～07:00,0.0361,0.0320,0.0343,
大田 (Ota),2022-11-27,05:01～06:00,0.0370,0.0308,0.0341,
大田 (Ota),2022-11-27,04:01～05:00,0.0373,0.0312,0.0342,
大田 (Ota),2022-11-27,03:01～04:00,0.0369,0.0318,0.0342,
大田 (Ota),2022-11-27,02:01～03:00,0.0367,0.0315,0.0341,
大田 (Ota),2022-11-27,01:01～02:00,0.0363,0.0322,0.0341,
大田 (Ota),2022-11-27,00:01～01:00,0.0370,0.0311,0.0340,
大田 (Ota),2022-11-26,23:01～24:00,0.0373,0.0323,0.0345,
大田 (Ota),2022-11-26,22:01～23:00,0.0365,0.0320,0.0342,
大田 (Ota),2022-11-26,21:01～22:00,0.0368,0.0322,0.0344,
大田 (Ota),2022-11-26,20:01～21:00,0.0372,0.0321,0.0345,
大田 (Ota),2022-11-26,19:01～20:00,0.0359,0.0321,0.0343,
大田 (Ota),2022-11-26,18:01～19:00,0.0358,0.0316,0.0338,
大田 (Ota),2022-11-26,17:01～18:00,0.0375,0.0311,0.0334,
大田 (Ota),2022-11-26,16:01～17:00,0.0357,0.0317,0.0337,
大田 (Ota),2022-11-26,15:01～16:00,0.0367,0.0300,0.0338,
大田 (Ota),2022-11-26,14:01～15:00,0.0363,0.0315,0.0338,
大田 (Ota),2022-11-26,13:01～14:00,0.0367,0.0315,0.0340,
大田 (Ota),2022-11-26,12:01～13:00,0.0374,0.0327,0.0349,
大田 (Ota),2022-11-26,11:01～12:00,0.0404,0.0339,0.0368,
大田 (Ota),2022-11-26,10:01～11:00,0.0429,0.0370,0.0401,
大田 (Ota),2022-11-26,09:01～10:00,0.0394,0.0328,0.0362,
大田 (Ota),2022-11-26,08:01～09:00,0.0360,0.0309,0.0341,
大田 (Ota),2022-11-26,07:01～08:00,0.0361,0.0309,0.0339,
大田 (Ota),2022-11-26,06:01～07:00,0.0367,0.0320,0.0342,
大田 (Ota),2022-11-26,05:01～06:00,0.0393,0.0325,0.0359,
大田 (Ota),2022-11-26,04:01～05:00,0.0403,0.0330,0.0361,
大田 (Ota),2022-11-26,03:01～04:00,0.0381,0.0316,0.0346,
大田 (Ota),2022-11-26,02:01～03:00,0.0363,0.0322,0.0340,
大田 (Ota),2022-11-26,01:01～02:00,0.0379,0.0313,0.0338,
大田 (Ota),2022-11-26,00:01～01:00,0.0360,0.0308,0.0337,
大田 (Ota),2022-11-25,23:01～24:00,0.0364,0.0312,0.0337,
大田 (Ota),2022-11-25,22:01～23:00,0.0356,0.0313,0.0336,
大田 (Ota),2022-11-25,21:01～22:00,0.0353,0.0313,0.0334,
大田 (Ota),2022-11-25,20:01～21:00,0.0362,0.0315,0.0333,
大田 (Ota),2022-11-25,19:01～20:00,0.0363,0.0313,0.0335,
大田 (Ota),2022-11-25,18:01～19:00,0.0362,0.0315,0.0334,
大田 (Ota),2022-11-25,17:01～18:00,0.0360,0.0309,0.0336,
大田 (Ota),2022-11-25,16:01～17:00,0.0356,0.0305,0.0335,
大田 (Ota),2022-11-25,15:01～16:00,0.0361,0.0308,0.0337,
大田 (Ota),2022-11-25,14:01～15:00,0.0361,0.0310,0.0334,
大田 (Ota),2022-11-25,13:01～14:00,0.0356,0.0314,0.0333,
大田 (Ota),2022-11-25,12:01～13:00,0.0359,0.0306,0.0333,
大田 (Ota),2022-11-25,11:01～12:00,0.0365,0.0315,0.0334,
大田 (Ota),2022-11-25,10:01～11:00,0.0359,0.0314,0.0337,
大田 (Ota),2022-11-25,09:01～10:00,0.0367,0.0309,0.0338,
大田 (Ota),2022-11-25,08:01～09:00,0.0354,0.0306,0.0334,
大田 (Ota),2022-11-25,07:01～08:00,0.0364,0.0318,0.0338,
大田 (Ota),2022-11-25,06:01～07:00,0.0360,0.0308,0.0336,
大田 (Ota),2022-11-25,05:01～06:00,0.0370,0.0315,0.0336,
大田 (Ota),2022-11-25,04:01～05:00,0.0364,0.0323,0.0339,
大田 (Ota),2022-11-25,03:01～04:00,0.0362,0.0316,0.0337,
大田 (Ota),2022-11-25,02:01～03:00,0.0360,0.0314,0.0336,
大田 (Ota),2022-11-25,01:01～02:00,0.0369,0.0311,0.0338,
大田 (Ota),2022-11-25,00:01～01:00,0.0353,0.0316,0.0335,
大田 (Ota),2022-11-24,23:01～24:00,0.0363,0.0312,0.0337,
大田 (Ota),2022-11-24,22:01～23:00,0.0359,0.0311,0.0337,
大田 (Ota),2022-11-24,21:01～22:00,0.0363,0.0315,0.0336,
大田 (Ota),2022-11-24,20:01～21:00,0.0359,0.0325,0.0338,
大田 (Ota),2022-11-24,19:01～20:00,0.0356,0.0311,0.0336,
大田 (Ota),2022-11-24,18:01～19:00,0.0356,0.0312,0.0334,
大田 (Ota),2022-11-24,17:01～18:00,0.0360,0.0310,0.0335,
大田 (Ota),2022-11-24,16:01～17:00,0.0362,0.0300,0.0333,
大田 (Ota),2022-11-24,15:01～16:00,0.0365,0.0312,0.0335,
大田 (Ota),2022-11-24,14:01～15:00,0.0356,0.0318,0.0334,
大田 (Ota),2022-11-24,13:01～14:00,0.0360,0.0318,0.0335,
大田 (Ota),2022-11-24,12:01～13:00,0.0368,0.0317,0.0338,
大田 (Ota),2022-11-24,11:01～12:00,0.0353,0.0309,0.0333,
大田 (Ota),2022-11-24,10:01～11:00,0.0369,0.0313,0.0340,
大田 (Ota),2022-11-24,09:01～10:00,0.0377,0.0299,0.0340,
大田 (Ota),2022-11-24,08:01～09:00,0.0361,0.0312,0.0338,
大田 (Ota),2022-11-24,07:01～08:00,0.0364,0.0320,0.0342,
大田 (Ota),2022-11-24,06:01～07:00,0.0360,0.0315,0.0339,
大田 (Ota),2022-11-24,05:01～06:00,0.0374,0.0318,0.0340,
大田 (Ota),2022-11-24,04:01～05:00,0.0358,0.0319,0.0340,
大田 (Ota),2022-11-24,03:01～04:00,0.0367,0.0309,0.0335,
大田 (Ota),2022-11-24,02:01～03:00,0.0360,0.0310,0.0335,
大田 (Ota),2022-11-24,01:01～02:00,0.0360,0.0311,0.0335,
大田 (Ota),2022-11-24,00:01～01:00,0.0354,0.0308,0.0335,
大田 (Ota),2022-11-23,23:01～24:00,0.0370,0.0319,0.0338,
大田 (Ota),2022-11-23,22:01～23:00,0.0380,0.0330,0.0359,
大田 (Ota),2022-11-23,21:01～22:00,0.0465,0.0358,0.0413,
大田 (Ota),2022-11-23,20:01～21:00,0.0529,0.0464,0.0497,
大田 (Ota),2022-11-23,19:01～20:00,0.0534,0.0443,0.0484,
大田 (Ota),2022-11-23,18:01～19:00,0.0530,0.0408,0.0470,
大田 (Ota),2022-11-23,17:01～18:00,0.0486,0.0398,0.0441,
大田 (Ota),2022-11-23,16:01～17:00,0.0527,0.0463,0.0490,
大田 (Ota),2022-11-23,15:01～16:00,0.0529,0.0477,0.0506,
大田 (Ota),2022-11-23,14:01～15:00,0.0548,0.0475,0.0512,
大田 (Ota),2022-11-23,13:01～14:00,0.0578,0.0511,0.0549,
大田 (Ota),2022-11-23,12:01～13:00,0.0579,0.0533,0.0555,
大田 (Ota),2022-11-23,11:01～12:00,0.0553,0.0472,0.0522,
大田 (Ota),2022-11-23,10:01～11:00,0.0529,0.0484,0.0508,
大田 (Ota),2022-11-23,09:01～10:00,0.0526,0.0444,0.0489,
大田 (Ota),2022-11-23,08:01～09:00,0.0482,0.0426,0.0458,
大田 (Ota),2022-11-23,07:01～08:00,0.0475,0.0424,0.0450,
大田 (Ota),2022-11-23,06:01～07:00,0.0490,0.0426,0.0455,
大田 (Ota),2022-11-23,05:01～06:00,0.0479,0.0420,0.0445,
大田 (Ota),2022-11-23,04:01～05:00,0.0443,0.0325,0.0378,
大田 (Ota),2022-11-23,03:01～04:00,0.0371,0.0320,0.0347,
大田 (Ota),2022-11-23,02:01～03:00,0.0369,0.0324,0.0346,
大田 (Ota),2022-11-23,01:01～02:00,0.0366,0.0323,0.0346,
大田 (Ota),2022-11-23,00:01～01:00,0.0363,0.0328,0.0345,
大田 (Ota),2022-11-22,23:01～24:00,0.0369,0.0317,0.0341,
大田 (Ota),2022-11-22,22:01～23:00,0.0362,0.0311,0.0340,
大田 (Ota),2022-11-22,21:01～22:00,0.0363,0.0319,0.0341,
大田 (Ota),2022-11-22,20:01～21:00,0.0367,0.0319,0.0343,
大田 (Ota),2022-11-22,19:01～20:00,0.0367,0.0320,0.0338,
大田 (Ota),2022-11-22,18:01～19:00,0.0362,0.0314,0.0338,
大田 (Ota),2022-11-22,17:01～18:00,0.0367,0.0318,0.0342,
大田 (Ota),2022-11-22,16:01～17:00,0.0360,0.0315,0.0341,
大田 (Ota),2022-11-22,15:01～16:00,0.0367,0.0314,0.0339,
大田 (Ota),2022-11-22,14:01～15:00,0.0363,0.0319,0.0342,
大田 (Ota),2022-11-22,13:01～14:00,0.0365,0.0311,0.0342,
大田 (Ota),2022-11-22,12:01～13:00,0.0366,0.0313,0.0343,
大田 (Ota),2022-11-22,11:01～12:00,0.0364,0.0315,0.0342,
大田 (Ota),2022-11-22,10:01～11:00,0.0371,0.0320,0.0349,
大田 (Ota),2022-11-22,09:01～10:00,0.0380,0.0328,0.0354,
大田 (Ota),2022-11-22,08:01～09:00,0.0383,0.0331,0.0354,
大田 (Ota),2022-11-22,07:01～08:00,0.0381,0.0329,0.0350,
大田 (Ota),2022-11-22,06:01～07:00,0.0374,0.0317,0.0345,
大田 (Ota),2022-11-22,05:01～06:00,0.0371,0.0323,0.0342,
大田 (Ota),2022-11-22,04:01～05:00,0.0365,0.0322,0.0343,
大田 (Ota),2022-11-22,03:01～04:00,0.0373,0.0324,0.0345,
大田 (Ota),2022-11-22,02:01～03:00,0.0365,0.0322,0.0342,
大田 (Ota),2022-11-22,01:01～02:00,0.0361,0.0325,0.0344,
大田 (Ota),2022-11-22,00:01～01:00,0.0372,0.0310,0.0338,
大田 (Ota),2022-11-21,23:01～24:00,0.0358,0.0314,0.0339,
大田 (Ota),2022-11-21,22:01～23:00,0.0370,0.0317,0.0337,
大田 (Ota),2022-11-21,21:01～22:00,0.0358,0.0306,0.0335,
大田 (Ota),2022-11-21,20:01～21:00,0.0360,0.0310,0.0336,
大田 (Ota),2022-11-21,19:01～20:00,0.0362,0.0312,0.0340,
大田 (Ota),2022-11-21,18:01～19:00,0.0360,0.0312,0.0337,
大田 (Ota),2022-11-21,17:01～18:00,0.0373,0.0311,0.0339,
大田 (Ota),2022-11-21,16:01～17:00,0.0363,0.0318,0.0339,
大田 (Ota),2022-11-21,15:01～16:00,0.0364,0.0313,0.0337,
大田 (Ota),2022-11-21,14:01～15:00,0.0360,0.0314,0.0337,
大田 (Ota),2022-11-21,13:01～14:00,0.0363,0.0312,0.0337,
大田 (Ota),2022-11-21,12:01～13:00,0.0362,0.0314,0.0338,
大田 (Ota),2022-11-21,11:01～12:00,0.0369,0.0319,0.0344,
大田 (Ota),2022-11-21,10:01～11:00,0.0398,0.0321,0.0362,
大田 (Ota),2022-11-21,09:01～10:00,0.0479,0.0370,0.0415,
大田 (Ota),2022-11-21,08:01～09:00,0.0475,0.0409,0.0442,
大田 (Ota),2022-11-21,07:01～08:00,0.0471,0.0405,0.0439,
大田 (Ota),2022-11-21,06:01～07:00,0.0456,0.0365,0.0403,
大田 (Ota),2022-11-21,05:01～06:00,0.0377,0.0325,0.0350,
大田 (Ota),2022-11-21,04:01～05:00,0.0366,0.0320,0.0339,
大田 (Ota),2022-11-21,03:01～04:00,0.0362,0.0318,0.0341,
大田 (Ota),2022-11-21,02:01～03:00,0.0384,0.0335,0.0354,
大田 (Ota),2022-11-21,01:01～02:00,0.0465,0.0343,0.0404,
大田 (Ota),2022-11-21,00:01～01:00,0.0521,0.0403,0.0482,
